Tracking 25953 objects as of 15-Aug-2022
HD Live streaming from Space Station
objects crossing your sky now

STARLINK-2113

Track STARLINK-2113 now!
10-day predictions
STARLINK-2113 is classified as:


NORAD ID: 47392
Int'l Code: 2021-005AV
Perigee: 553.3 km
Apogee: 555.4 km
Inclination: 53.1 °
Period: 95.6 minutes
Semi major axis: 6925 km
RCS: Unknown
Launch date: January 20, 2021
Source: United States (US)
Launch site: AIR FORCE EASTERN TEST RANGE (AFETR)
aabbcc
Your satellite tracking list
Your tracking list is empty




NASA's NSSDC Master Catalog

Two Line Element Set (TLE):
1 47392U 21005AV  22226.80418613  .00000942  00000-0  82129-4 0  9999
2 47392  53.0547 120.5063 0001466  80.2883 279.8272 15.06401531 87697
Source of the keplerian elements: AFSPC